CAPE
11 0 13 8 0 0 3 0 1 0 0 7 38 35 0 0 0 0 0 1 1 1 1 1 1 1 2 0 2 1 0 0 0 0 0 0 1 0 1 9 10 33 35 30
24 0 27 7 0 0 0 0 0 1 5 22 58 58 0 0 0 1 0 1 2 1 1 1 0 1 0 1 0 0 0 0 0 0 0 0 0 0 1 1 2 0 0 0
40 17 11 0 0 0 0 0 27 29 29 63 58 16 0 1 0 0 0 0 1 1 1 1 0 0 0 0 0 0 0 0 0 0 0 0 0 0 1 4 1 2 2 1
12 1 0 9 0 0 0 13 12 16 74 38 1 4 3 2 4 3 3 1 2 3 1 0 0 0 0 0 0 0 0 0 0 0 0 0 1 2 3 1 1 1 1 1
24 13 0 0 0 0 4 26 16 10 31 1 2 0 6 4 2 2 6 5 0 5 3 1 0 0 0 0 0 0 0 0 0 0 0 3 5 5 4 1 1 1 1 1
44 1 0 106 0 0 0 13 7 6 10 7 1 18 7 11 5 5 4 2 1 0 1 0 0 0 0 0 0 0 0 0 0 0 2 4 4 4 3 2 1 1 1 4
84 19 8 1 0 0 0 3 14 4 3 0 5 3 6 4 4 6 7 6 3 1 1 0 0 0 0 0 0 0 0 1 1 2 3 3 4 4 3 2 2 4 4 7
65 18 9 0 17 8 10 7 2 3 4 5 5 3 4 5 4 4 7 1 0 0 0 0 0 0 0 1 2 0 1 2 2 2 2 3 6 5 4 4 4 7 9 10
132 124 5 4 5 6 4 5 8 6 6 2 1 3 4 4 5 6 4 0 0 0 1 1 0 0 0 0 1 1 0 1 2 2 1 1 3 4 5 5 7 8 9 11
32 8 12 15 7 6 7 7 4 5 3 5 5 6 4 4 6 6 6 0 0 0 1 1 3 1 2 1 1 1 1 1 2 2 3 2 4 5 6 7 9 7 8 9
18 15 8 12 13 8 8 5 5 11 10 9 8 9 7 6 6 6 6 1 0 0 1 2 2 2 1 1 1 1 2 3 4 4 6 8 11 10 9 14 10 10 14 12
15 11 5 11 12 9 7 9 12 6 6 8 7 6 6 7 5 4 2 1 2 5 3 4 3 5 4 3 2 1 2 4 6 6 6 4 5 8 7 9 7 4 2 8
8 8 7 9 8 7 5 7 6 5 3 2 1 1 2 4 6 8 3 3 4 6 6 6 6 5 7 6 5 8 10 6 6 8 8 10 9 11 11 8 6 5 7 9
21 12 7 8 4 3 1 0 0 0 0 1 1 1 2 3 3 4 3 3 3 4 5 5 4 5 7 7 4 4 7 4 14 14 14 15 15 15 14 15 15 15 4 4
8 7 3 3 0 0 0 0 0 0 0 1 1 1 1 3 5 4 3 1 1 2 4 2 2 4 4 3 4 8 12 13 12 12 9 8 9 6 5 5 5 5 6 1
7 2 1 1 0 0 0 0 0 0 0 1 2 2 1 1 3 4 3 2 0 2 3 2 2 3 3 6 9 9 4 1 4 12 11 9 7 2 1 1 2 1 2 4
6 5 4 2 2 1 1 2 1 2 2 3 3 2 1 1 1 2 2 2 3 4 4 3 4 1 2 2 8 11 12 7 1 7 6 3 3 1 1 1 0 0 1 2
2 3 3 3 2 2 3 2 3 2 4 3 2 2 1 0 2 2 2 1 0 0 4 5 2 2 1 3 3 7 7 5 4 3 2 3 1 1 2 1 0 0 1 0
3 3 3 3 4 3 4 4 4 3 2 1 0 0 0 0 0 1 0 0 0 0 3 2 1 1 1 0 0 2 4 7 2 2 1 0 4 2 6 6 5 5 3 3
4 3 5 5 4 3 3 3 3 2 1 0 0 0 0 0 0 0 0 2 4 6 3 1 1 1 0 0 0 2 7 9 3 7 9 6 10 12 6 0 3 6 8 8
4 2 1 0 1 1 1 1 0 0 0 0 0 0 0 0 0 0 1 1 4 1 0 0 0 0 0 0 0 11 9 10 8 8 9 9 7 7 8 7 6 6 6 7
2 1 1 1 1 2 2 3 0 0 0 0 0 0 0 0 0 0 1 2 2 0 0 1 1 0 0 0 4 8 5 5 5 5 6 6 7 6 6 5 5 6 6 6
3 3 2 1 1 2 0 0 0 0 0 0 0 1 0 0 0 0 1 1 2 0 1 5 0 0 0 7 8 8 5 4 5 4 5 5 5 5 5 5 6 6 7 6
3 4 2 2 1 0 1 1 0 0 0 0 0 0 0 4 5 1 1 0 0 0 1 0 0 0 0 7 6 5 5 5 5 6 5 1 7 4 6 5 4 7 4 1
4 1 2 2 2 4 2 2 2 3 2 3 2 2 0 0 6 8 10 8 0 0 8 0 0 0 6 8 7 6 7 8 8 8 6 7 6 6 8 8 5 9 7 6
5 7 8 4 6 5 5 4 7 9 9 10 10 8 8 5 6 8 11 4 6 1 10 11 10 10 11 10 9 8 10 10 9 11 5 10 10 9 10 8 8 10 10 11
6 1 3 2 2 2 3 3 11 12 8 13 10 13 11 11 7 3 0 9 11 9 11 12 15 5 13 14 13 11 12 12 1 9 11 12 12 14 11 10 11 12 11 8
CIN
-17 0 0 -1 -9 0 0 0 0 0 0 -0 -0 -0 0 0 0 0 0 0 0 0 0 0 0 0 0 0 0 0 0 0 0 0 0 0 0 0 -2 0 -7 -0 0 -0
-4 0 0 -0 0 0 0 0 0 0 -3 -1 0 -1 0 0 0 0 0 0 0 0 0 0 0 0 0 0 0 0 0 0 0 0 0 0 0 0 0 0 0 0 0 0
0 -0 0 -1 0 0 0 0 -0 0 -3 -1 -1 -4 0 0 0 0 0 -0 0 0 0 0 -0 0 0 0 0 0 0 0 0 0 0 0 0 0 0 0 0 0 0 0
-0 -0 0 -1 0 0 0 0 0 -0 0 -4 0 0 0 0 0 0 0 0 0 0 0 0 0 0 0 0 0 0 0 0 0 0 0 0 0 0 0 0 0 0 0 0
0 0 0 0 0 0 0 0 -8 0 0 0 0 0 0 0 0 0 0 0 0 0 0 0 0 0 0 0 0 0 0 0 0 0 0 0 0 0 0 0 0 0 0 0
-0 0 0 -2 0 0 0 0 0 0 0 0 0 0 0 0 0 0 0 0 0 0 0 0 0 0 0 0 0 0 0 0 0 0 0 0 0 0 0 0 0 0 0 0
-0 -2 0 -2 0 -4 0 -1 -0 0 0 0 -2 0 0 0 0 0 0 0 0 0 0 0 0 0 0 0 0 0 0 0 0 0 0 0 0 0 0 0 0 0 0 0
-0 -11 0 0 -24 -1 0 -5 0 0 0 0 0 0 0 0 0 0 0 0 0 0 0 0 0 0 0 0 0 0 0 0 0 0 0 0 0 0 0 0 0 0 0 0
0 -4 0 0 0 0 0 0 0 0 0 0 0 0 0 0 0 0 0 0 0 0 0 0 0 0 0 0 0 0 0 0 0 0 0 0 0 0 0 0 0 0 0 0
-6 0 0 0 0 0 0 0 0 0 0 0 0 0 0 0 0 0 0 0 0 0 0 0 0 0 0 0 0 0 0 0 0 0 0 0 0 0 0 0 0 0 0 0
0 0 0 0 0 0 0 0 0 0 0 0 0 0 0 0 0 0 0 0 0 0 0 0 0 0 0 0 0 0 0 0 0 0 0 0 0 0 0 0 0 0 0 0
0 0 0 0 0 0 0 0 0 0 0 0 0 0 0 0 0 0 0 0 0 0 0 0 0 0 0 0 0 0 0 0 0 0 0 0 0 0 0 0 0 0 0 0
0 0 0 0 0 0 0 0 0 0 0 0 0 0 0 0 0 0 0 0 0 0 0 0 0 0 0 0 0 0 0 0 0 0 0 0 0 0 0 0 0 0 0 0
0 0 0 0 0 0 0 0 0 0 0 0 0 0 0 0 0 0 0 0 0 0 0 0 0 0 0 0 0 0 0 0 0 0 0 0 0 0 0 0 0 0 0 0
0 0 0 0 0 0 0 0 0 0 0 0 0 0 0 0 0 0 0 0 0 0 0 0 0 0 0 0 0 0 0 0 0 0 0 0 0 0 0 0 0 0 0 0
0 0 0 0 0 0 0 0 0 0 0 0 0 0 0 0 0 0 0 0 0 0 0 0 0 0 0 0 0 0 0 0 0 0 0 0 0 0 0 0 0 0 0 0
0 0 0 0 0 0 0 0 0 0 0 0 0 0 0 0 0 0 0 0 0 0 0 0 0 0 0 0 0 0 0 0 0 0 0 0 0 0 0 0 0 0 0 0
0 0 0 0 0 0 0 0 0 0 0 0 0 0 0 0 0 0 0 0 0 0 0 0 0 0 0 0 0 0 0 0 0 0 0 0 0 0 0 0 0 0 0 0
0 0 0 0 0 0 0 0 0 0 0 0 0 0 0 0 0 0 0 0 0 0 0 0 0 0 0 0 0 0 0 0 0 0 0 0 0 0 0 0 0 0 0 0
0 0 0 0 0 0 0 0 0 0 0 0 0 0 0 0 0 0 0 0 0 0 0 0 0 0 0 0 0 0 0 0 0 0 0 0 0 0 0 0 0 0 0 0
0 0 0 0 0 0 0 0 0 0 0 0 0 0 0 0 0 0 0 0 0 0 0 0 0 0 0 0 0 0 0 0 0 0 0 0 0 0 0 0 0 0 0 0
0 0 0 0 0 0 0 0 0 0 0 0 0 0 0 0 0 0 0 0 0 0 0 0 0 0 0 0 0 0 0 0 0 0 0 0 0 0 0 0 0 0 0 0
0 0 0 0 0 0 0 0 0 0 0 0 0 0 0 0 0 0 0 0 0 0 0 0 0 0 0 0 0 0 0 0 0 0 0 0 0 0 0 0 0 0 0 0
0 0 0 0 0 0 0 0 0 0 0 0 0 0 0 0 0 0 0 0 0 0 0 0 0 0 0 0 0 0 0 0 0 0 0 0 0 0 0 0 0 0 0 -0
0 0 0 0 0 0 0 0 0 0 0 0 0 0 0 0 0 0 0 0 0 0 0 0 0 0 0 0 0 0 0 0 0 0 0 0 0 0 0 0 0 0 0 0
0 0 0 0 0 0 0 0 0 0 0 0 0 0 0 0 0 0 0 0 0 0 0 0 0 0 0 0 0 0 0 0 0 0 0 0 0 0 0 0 0 0 0 0
0 0 0 0 0 0 0 0 0 0 -0 0 0 0 0 0 0 0 0 0 0 0 0 0 0 -0 0 0 0 0 0 0 -0 0 0 0 0 0 0 0 0 0 0 0
Wind_Speed
5 2 13 4 7 8 11 10 7 9 12 13 12 4 6 9 8 11 13 13 13 14 13 13 13 12 12 13 12 10 11 12 11 10 10 10 10 10 7 4 3 5 7 8
7 8 17 10 10 8 8 5 9 12 12 4 8 6 11 12 10 8 11 10 13 13 14 14 13 12 12 12 12 10 12 12 10 11 12 11 10 9 10 10 11 12 12 14
6 8 8 11 11 5 4 4 5 8 13 9 9 4 13 12 12 12 10 9 11 11 12 12 12 12 12 12 12 12 13 13 11 10 13 10 9 9 10 11 11 12 12 12
4 3 6 8 3 1 3 2 9 8 11 8 8 13 15 11 10 11 10 8 12 10 11 13 12 12 12 14 14 14 14 13 10 11 15 11 10 10 11 11 12 11 11 11
2 3 6 3 6 6 7 5 10 11 12 9 9 9 13 9 11 12 9 10 11 11 12 13 13 12 13 13 13 13 12 11 12 16 15 11 11 11 10 11 12 12 11 12
3 1 2 8 4 9 7 4 11 13 13 12 11 4 3 7 9 11 9 9 11 12 13 13 13 12 12 14 14 17 17 16 16 13 12 12 10 10 10 11 12 10 12 13
6 4 2 7 10 6 7 6 12 11 12 13 2 5 13 12 12 8 10 12 12 13 13 14 12 13 15 15 18 14 14 12 12 11 13 12 11 9 9 10 11 12 12 12
3 3 3 14 2 5 7 5 7 9 10 14 14 14 12 10 9 8 10 12 13 13 14 13 12 12 13 14 11 12 12 11 12 13 9 9 11 8 9 10 11 11 11 10
6 6 6 9 9 6 8 7 5 8 10 11 12 11 10 10 10 9 10 11 12 13 14 13 13 12 13 11 10 12 12 12 13 13 12 11 10 9 9 10 10 10 9 9
5 10 9 8 9 10 11 11 11 12 12 12 14 11 11 9 8 9 9 11 12 13 13 12 12 12 11 9 9 10 12 13 12 13 12 12 10 10 10 9 9 9 9 9
4 6 7 9 9 9 12 11 12 12 11 11 10 10 10 10 9 8 9 10 12 12 12 12 11 11 10 8 8 9 10 9 10 10 12 13 13 11 11 14 12 8 8 8
3 5 7 6 9 10 11 11 9 10 12 12 11 11 10 10 10 10 12 12 13 12 12 12 12 12 10 9 7 8 9 8 6 6 6 7 9 11 21 20 21 21 20 12
3 10 13 10 10 10 11 10 10 11 10 11 11 11 12 12 12 13 12 12 12 12 11 11 11 11 11 10 9 9 8 7 7 7 6 6 5 5 7 10 19 20 20 19
5 8 7 4 6 8 9 9 10 10 10 10 10 11 11 11 11 12 12 11 11 11 11 10 10 12 10 9 9 9 9 11 7 6 6 6 6 6 5 5 5 6 14 15
10 10 11 9 8 6 6 6 7 8 8 9 9 9 10 11 11 11 10 9 10 11 11 10 10 11 10 9 10 10 7 7 7 6 7 6 6 6 6 6 6 6 5 8
6 7 7 7 6 6 5 5 6 7 8 8 9 10 10 11 11 11 11 10 9 10 10 9 10 9 8 7 6 6 7 8 6 5 4 5 5 5 5 6 6 6 7 7
5 5 4 5 6 6 7 7 7 7 7 8 9 9 9 10 11 11 10 9 9 9 9 9 9 8 8 8 6 5 4 5 5 4 5 5 5 6 6 5 5 6 7 7
7 5 4 6 6 7 8 8 8 8 8 9 8 8 8 8 8 8 7 6 7 9 9 9 8 6 7 7 6 4 4 4 5 4 4 5 5 5 5 5 5 5 5 6
6 7 7 7 7 8 8 8 9 9 8 7 8 9 8 7 6 6 5 5 5 6 9 8 9 8 8 10 6 4 4 4 4 5 5 4 5 5 5 5 5 4 4 4
8 8 9 10 9 9 10 8 9 9 7 8 8 7 7 6 5 5 6 9 8 6 6 8 6 7 7 8 7 5 4 4 4 4 4 4 4 4 5 5 4 3 3 3
9 10 10 10 10 9 9 8 8 8 6 5 6 6 5 5 4 1 3 4 6 5 5 6 6 5 5 5 4 4 4 4 4 4 3 3 3 3 3 3 2 2 2 2
8 9 9 9 9 9 7 7 7 7 7 7 6 5 5 5 4 5 5 4 4 4 3 4 5 8 6 5 5 4 4 4 3 3 3 3 3 2 2 2 3 2 2 2
8 8 8 8 8 8 7 6 6 6 6 5 4 3 3 3 2 0 2 3 2 4 3 5 5 5 6 4 4 4 4 3 3 3 2 2 2 2 3 3 3 3 3 3
8 7 7 7 7 7 7 6 6 6 5 5 4 2 1 3 3 3 4 4 3 2 4 4 3 3 5 2 3 3 2 2 2 1 1 2 2 2 2 2 3 3 3 3
7 7 6 6 5 4 6 6 6 6 6 5 5 5 3 2 1 3 3 3 4 5 2 4 2 2 2 1 2 2 2 3 3 3 2 3 3 3 3 3 3 4 3 4
6 4 4 3 3 1 2 4 2 3 3 3 3 2 3 2 3 3 3 1 2 2 2 1 2 3 3 3 3 3 4 4 4 4 4 5 5 4 4 4 5 5 5 5
4 3 4 3 3 3 3 2 3 3 3 3 2 3 3 3 2 2 1 1 2 2 3 3 3 3 4 4 4 4 4 4 3 5 5 5 5 5 5 5 5 5 5 5
Wind_Direction
209 358 294 253 202 200 213 237 257 302 280 316 322 274 131 94 73 52 38 29 38 49 46 41 45 52 51 51 52 56 73 72 65 61 56 51 49 40 26 7 319 234 206 198
199 192 246 246 237 242 245 261 265 282 287 335 340 125 155 123 104 73 67 36 39 47 54 45 39 50 57 56 53 61 61 60 61 65 60 53 50 49 48 50 49 53 49 58
182 182 249 250 229 206 250 274 318 323 331 335 338 25 171 130 114 102 75 65 49 50 53 53 49 45 53 65 68 67 68 53 45 65 65 54 58 61 62 58 56 56 54 67
131 213 224 88 352 43 289 320 14 352 5 24 100 81 59 75 96 86 97 85 66 47 54 58 54 53 55 54 58 55 57 58 48 50 55 47 50 54 66 69 67 65 59 64
253 208 329 196 53 28 360 68 27 0 358 126 116 79 60 55 69 77 68 65 67 60 54 52 51 55 62 60 62 61 62 54 55 53 57 45 50 48 55 71 70 67 61 51
183 248 231 74 39 353 319 221 13 0 340 312 190 225 94 78 77 76 68 67 67 61 57 54 48 49 63 59 52 44 38 37 46 50 60 60 55 61 66 70 73 71 65 54
229 246 259 38 339 323 250 29 2 5 10 359 164 53 108 90 69 57 73 68 63 60 56 57 55 55 55 45 45 44 47 49 53 61 60 65 61 63 74 81 79 74 68 55
208 246 244 1 44 341 353 341 10 41 65 85 90 90 91 90 88 78 72 76 71 67 58 50 50 61 68 67 61 58 59 59 60 57 63 72 71 68 76 79 79 77 77 71
345 30 57 36 55 35 20 59 43 71 87 102 101 93 91 87 76 67 72 76 72 73 68 56 50 56 63 60 62 66 68 64 65 65 59 56 71 72 71 69 73 68 66 63
316 34 46 45 64 56 55 69 66 71 86 92 96 92 85 75 67 66 64 68 71 72 69 65 57 58 66 73 82 86 81 75 66 60 64 62 59 50 54 59 61 62 59 58
76 120 101 56 52 66 72 73 74 72 81 92 100 96 98 94 83 75 72 71 71 70 69 66 61 60 54 70 85 90 88 85 86 84 80 71 53 50 61 49 47 62 64 54
13 16 75 57 52 58 71 71 74 86 85 81 87 91 91 86 82 79 72 66 66 62 63 56 58 56 50 48 67 90 90 78 70 81 82 95 94 78 57 59 57 61 56 60
82 79 93 90 66 65 76 76 73 73 73 83 83 89 88 87 82 82 81 80 72 65 61 55 54 52 38 44 49 59 74 82 88 74 74 76 70 86 113 92 73 51 57 58
117 122 91 23 87 77 77 81 85 83 81 82 87 90 94 94 88 78 72 73 74 70 63 55 53 47 32 40 58 65 72 57 63 60 64 67 67 69 62 51 59 63 59 48
58 72 94 115 109 96 94 93 89 83 84 83 78 84 89 90 84 80 78 79 78 70 60 53 46 38 26 35 47 44 55 58 61 64 57 59 63 61 58 56 53 48 49 62
106 100 101 101 102 95 82 78 85 85 87 90 92 89 90 91 88 77 64 51 62 56 48 42 40 21 20 25 48 71 73 55 53 67 68 66 62 61 60 57 56 50 41 24
149 137 123 104 95 82 77 72 84 91 94 94 96 95 96 93 87 77 66 62 66 60 50 43 33 19 20 19 19 47 60 67 46 61 58 57 61 61 62 62 63 63 62 35
67 61 60 111 119 112 99 93 95 98 94 85 87 91 83 80 84 78 67 67 75 65 45 33 34 31 38 26 19 43 51 54 54 55 61 59 65 67 67 68 64 61 65 66
69 88 94 97 104 112 110 104 98 99 103 103 95 81 76 72 72 73 71 73 62 57 36 26 22 30 34 23 4 41 45 52 57 62 70 90 74 68 72 71 68 59 53 49
81 78 83 86 81 99 99 95 98 88 85 93 94 90 82 70 66 69 65 59 40 30 16 18 20 33 33 33 3 44 44 62 68 67 52 72 75 81 90 58 42 50 50 52
97 97 97 97 96 94 97 106 110 104 99 94 99 93 91 94 78 45 146 82 63 39 32 42 23 26 43 10 28 44 50 59 55 58 58 74 99 62 55 44 39 20 28 19
107 104 102 103 102 99 96 100 103 106 100 93 91 95 102 101 104 85 33 37 86 10 34 46 47 27 25 351 38 42 46 47 53 59 67 53 48 44 31 7 350 355 342 329
117 116 114 113 112 108 109 106 109 113 113 116 125 122 72 58 43 218 127 81 67 51 40 50 40 29 13 22 32 35 39 33 37 40 39 31 13 358 341 342 338 321 308 300
121 118 113 115 127 135 133 140 146 135 128 129 121 146 156 121 107 80 92 90 82 57 39 51 61 25 317 47 43 45 26 35 16 348 19 278 310 291 295 326 305 315 308 268
128 131 139 158 156 139 140 147 151 154 167 149 146 154 149 62 6 132 144 124 158 247 112 128 179 242 283 346 7 349 337 324 348 314 303 299 294 288 288 291 288 293 295 279
152 133 101 68 55 105 148 182 216 177 187 178 166 154 144 138 128 175 167 156 216 188 264 165 236 247 271 272 296 294 305 306 267 254 287 281 278 277 277 282 288 277 268 269
123 143 134 121 77 56 29 7 262 243 211 249 256 166 186 185 150 235 212 226 260 263 262 272 275 263 298 297 281 286 288 291 271 293 292 283 279 276 277 279 285 286 279 271